{"data":{"norad_id":41034,"intl_designator":"2015-067A","name":"LAOSAT 1","alt_names":[],"object_type":"PAYLOAD","status":"ACTIVE","operator":null,"country":"LAOS","launch_date":"2015-11-20","launch_site_code":"XICLF","launch_vehicle":null,"mission":null,"orbit_class":"UNKNOWN","rcs_meters":56.7416,"size_class":null,"mass_kg":null,"dimensions":null,"purposes":["comms"],"wikipedia_slug":null,"has_3d_model":false,"image_url":null,"decayed_at":null,"tle_current":{"epoch":"2026-05-24T23:13:15.746304Z","epoch_age_seconds":78691,"freshness":"FRESH","line1":"1 41034U 15067A   26144.96754336 -.00000345  00000+0  00000+0 0  9992","line2":"2 41034   0.0142 127.3843 0002532 253.8250 338.1719  1.00274760 38624","mean_motion":1.0027476,"eccentricity":0.0002532,"inclination_deg":0.0142,"raan_deg":127.3843,"arg_perigee_deg":253.825,"mean_anomaly_deg":338.1719,"bstar":0,"rev_number":3862,"period_min":1436.054297213,"perigee_km":35775.085082346,"apogee_km":35796.436880284,"semimajor_km":42163.897981315,"source":"CELESTRAK","updated_at":"2026-05-25T13:38:13.996728Z"}}}